CAPE
0 0 0 0 0 0 0 0 0 0 0 0 0 0 0 0 0 0 0 0 0 0 0 0 404 542 517 690 796 813 961 1020 819 732 848 680 562 703 521 459 454 607 637 535 504 465 496 503 497 434 409 454 380 29 1 99 9 301 789 922 914 833 774 747 1106 462 871 346 532 268 172 127 459 113 533 411 1260 1810 2164 2538 2518 2625 3185 3454 3417 3631
0 0 0 0 0 0 0 0 0 0 0 0 0 0 0 0 0 0 0 0 0 0 0 0 226 217 400 588 614 596 617 814 892 812 759 660 590 1205 904 1149 459 437 498 642 679 534 483 449 567 518 456 449 349 123 0 205 1 293 685 837 771 635 728 736 895 490 907 380 596 218 55 13 15 647 630 298 1243 1856 2277 2348 2408 2734 3095 3076 3164 3559
0 0 0 0 0 0 0 0 0 0 0 0 0 0 0 0 0 0 0 0 0 0 0 0 48 325 325 354 542 496 507 812 1014 955 821 791 722 1090 928 1022 1205 404 464 614 693 526 475 470 440 507 509 483 378 391 136 130 85 177 668 735 533 544 808 947 1057 650 1129 583 889 244 18 0 2 354 352 235 1318 2064 2166 2110 2301 2613 2838 2939 3215 3450
0 0 0 0 0 0 0 0 0 0 0 0 0 0 0 0 0 0 0 0 0 0 0 6 0 154 168 265 393 455 587 825 1057 1067 1071 960 1024 1083 958 1065 1158 829 778 500 590 528 459 498 469 498 516 485 428 348 0 114 136 83 723 605 498 846 1038 1075 1352 1203 1279 729 950 243 9 0 15 176 288 664 1709 2049 2145 2026 2180 2523 2712 3039 3168 3126
0 0 0 0 0 0 0 0 0 0 0 0 0 0 0 0 0 0 0 0 0 0 0 0 103 297 322 438 439 474 579 822 1107 1091 1050 1193 1170 1088 1237 1133 1167 946 591 650 418 349 520 519 503 550 568 520 520 127 0 175 90 34 763 648 598 969 1257 1157 1713 1400 1217 1026 1028 494 46 178 227 440 144 478 1731 2028 2173 1897 2134 2661 2593 2779 2770 2863
0 0 0 0 0 0 0 0 0 0 0 0 0 0 0 0 0 0 0 0 0 0 0 0 0 388 420 512 549 598 673 868 1269 1220 1088 1267 1133 1369 1403 1215 1445 1305 1114 673 645 401 485 454 560 529 501 474 499 271 1 124 45 51 468 680 706 906 1429 1324 1668 1423 1274 809 622 232 355 202 55 215 76 66 1672 1930 2095 1878 1996 2661 2428 2476 2364 2536
0 0 0 0 0 0 0 0 0 0 0 0 0 0 0 0 0 0 0 0 0 0 0 0 0 0 364 431 386 586 604 893 1181 1160 1392 1546 1482 1486 1346 1175 1168 1147 1257 1278 650 434 420 431 444 404 511 476 437 556 12 261 48 83 716 718 850 922 1386 1537 1576 1469 1163 904 445 186 579 231 6 110 30 8 533 1622 1896 1772 1887 2414 2305 2256 2366 2291
0 0 0 0 0 0 0 0 0 0 0 0 0 0 0 0 0 0 0 0 0 0 0 0 0 0 269 377 364 391 571 694 882 1197 1708 1661 1499 1378 1276 1211 998 1186 1044 1057 893 436 406 441 440 459 423 461 577 721 360 437 96 59 578 757 878 1064 1295 1585 1501 1294 1027 703 409 416 399 460 3 13 4 21 2 748 1504 1590 1729 1979 2231 2169 2180 2251
0 0 0 0 0 0 0 0 0 0 0 0 0 0 0 0 0 0 0 0 0 0 0 0 0 0 0 327 334 390 534 581 946 1288 1511 1585 1412 1271 1167 1114 1094 1017 892 745 549 426 455 450 469 489 457 481 616 747 685 569 239 426 496 850 863 1223 1075 1577 1372 1161 818 612 285 309 313 614 6 1 23 126 202 24 414 1348 1628 1824 2024 2187 2100 2123
0 0 0 0 0 0 0 0 0 0 0 0 0 0 0 0 0 0 0 0 0 0 0 0 0 0 0 5 431 373 361 542 701 1082 1386 1330 1295 1278 1182 1150 1083 1022 879 734 648 545 470 551 484 619 554 495 613 696 787 683 442 514 558 932 840 1325 1049 1338 1272 1040 843 531 331 165 271 267 435 300 123 40 814 39 1 1265 1585 1600 1849 2083 1934 2500
0 0 0 0 0 0 0 0 0 0 0 0 0 0 0 0 0 0 0 0 0 0 0 0 0 0 0 0 0 82 294 374 554 832 1131 1207 1222 1370 1413 1131 1078 947 918 848 741 622 568 608 530 479 723 555 530 632 933 971 646 782 475 946 868 1206 1153 1323 1132 856 885 620 176 118 268 136 801 456 76 0 489 355 0 294 1233 1443 1707 1845 1690 1958
0 0 0 0 0 0 0 0 0 0 0 0 0 0 0 0 0 0 0 0 0 0 0 0 0 0 0 0 0 0 22 510 644 719 856 1224 1280 1319 1284 1205 1074 1004 976 951 828 748 680 587 539 479 775 658 561 640 983 1058 901 872 570 1002 949 993 1277 1364 1101 709 711 794 188 120 299 204 720 637 104 3 158 942 76 71 939 1333 1676 1744 1791 1726
0 0 0 0 0 0 0 0 0 0 0 0 0 0 0 0 0 0 0 0 0 0 0 0 0 0 0 0 0 0 0 250 429 502 776 1268 1223 1144 1135 1144 1208 1196 1164 1124 1078 900 812 606 500 470 734 692 673 907 844 1089 1059 856 614 925 998 916 1235 1464 1080 652 628 685 402 156 303 375 389 732 211 23 95 267 167 355 209 1539 1596 1650 1823 1676
0 0 0 0 0 0 0 0 0 0 0 0 0 0 0 0 0 0 0 0 0 0 0 0 0 0 0 0 0 0 0 6 474 479 753 1189 1196 1080 1066 1137 1148 1185 1182 1181 1123 915 785 709 623 484 759 897 888 787 876 906 1164 1026 879 732 957 949 1028 1488 1137 662 543 567 614 228 300 589 367 534 419 101 124 45 152 230 369 850 1596 1649 1690 1853
0 0 0 0 0 0 0 0 0 0 0 0 0 0 0 0 0 0 0 0 0 0 0 0 0 0 0 0 0 0 0 0 110 543 713 1107 1129 1072 1166 1173 1250 1160 1104 1205 1164 969 946 782 637 598 811 987 891 875 885 906 1159 1140 1024 874 868 920 879 1310 1298 775 505 498 637 385 328 551 389 308 408 278 210 1 110 104 494 370 1326 1537 1710 1810
0 0 0 0 0 0 0 0 0 0 0 0 0 0 0 0 0 0 0 0 0 0 0 0 0 0 0 0 0 0 0 0 0 518 838 978 936 876 1090 1151 1136 1090 1094 1116 1186 1109 1034 976 803 646 608 957 1097 1064 964 989 980 1178 1185 1004 826 838 810 974 1371 975 546 448 554 546 354 360 483 398 195 271 476 79 56 104 122 526 814 1282 1240 1675
0 0 0 0 0 0 0 0 0 0 0 0 0 0 0 0 0 0 0 0 0 0 0 0 0 0 0 0 0 0 0 0 0 0 787 871 705 831 978 927 1011 1162 1088 1126 1156 1126 1088 1011 929 836 766 788 1105 1138 1037 1029 1056 1156 1194 1152 955 823 788 668 1193 1136 719 432 458 543 417 278 308 297 113 143 238 361 136 185 53 300 545 1108 1250 1214
0 0 0 0 0 0 0 0 0 0 0 0 0 0 0 0 0 0 0 0 0 0 0 0 0 0 0 0 0 0 0 0 0 0 193 786 699 790 883 847 988 999 1144 1100 1097 1154 1054 953 916 976 938 1070 1190 1194 1129 1077 1054 1030 1250 1205 1124 956 897 602 760 1045 840 491 402 454 439 274 174 171 89 34 68 198 458 428 231 268 543 802 1162 1133
0 0 0 0 0 0 0 0 0 0 0 0 0 0 0 0 0 0 0 0 0 0 0 0 0 0 0 0 0 0 0 0 0 0 0 805 979 793 790 992 972 1052 1016 958 1031 1127 1101 1124 1098 1153 1214 1223 1376 1298 1186 1100 1056 1026 1166 1293 1315 1072 1090 773 615 814 843 606 414 404 407 292 131 50 42 1 18 2 311 728 576 515 548 708 1006 1255
0 0 0 0 0 0 0 0 0 0 0 0 0 0 0 0 0 0 0 0 0 0 0 0 0 0 0 0 0 0 0 0 0 0 0 686 911 935 908 879 942 915 870 1026 1228 1260 1354 1445 1389 1330 1337 1389 1440 1404 1222 1122 1062 1079 1236 1474 1411 1360 1280 1058 689 774 807 684 441 340 346 294 162 55 9 0 0 0 0 263 894 860 898 759 673 1152
0 0 0 0 0 0 0 0 0 0 0 0 0 0 0 0 0 0 0 0 0 0 0 0 0 0 0 0 0 2 2 0 0 0 0 0 871 848 777 778 772 796 1045 1293 1368 1493 1514 1560 1581 1501 1418 1370 1419 1457 1322 1178 1097 1133 1168 1542 1668 1522 1431 1286 855 795 868 788 505 309 272 284 215 98 7 0 0 0 0 0 211 932 986 1045 750 405
0 0 0 0 0 0 0 0 0 0 0 0 0 0 0 0 0 0 0 0 0 0 0 0 0 0 0 1 0 55 259 108 3 2 7 1 142 794 861 806 778 972 1180 1329 1365 1470 1549 1560 1526 1556 1486 1372 1298 1383 1380 1216 1102 1060 1271 1494 1915 1837 1680 1524 1194 878 989 964 702 306 197 223 234 192 79 0 0 0 0 0 0 137 695 937 1014 661
0 0 0 0 0 0 0 0 0 0 0 0 0 0 0 0 0 0 0 0 0 0 0 0 0 0 0 0 0 306 682 470 32 2 2 5 70 696 766 884 975 1147 1169 1116 1142 1168 1318 1508 1717 1640 1432 1331 1300 1359 1437 1324 1211 1128 1286 1594 1967 2120 2026 1834 1542 1175 1039 1111 924 561 224 164 205 214 172 54 0 0 0 0 0 25 306 468 798 917
0 0 0 0 0 0 0 0 0 0 0 0 0 0 0 0 0 0 0 0 0 0 0 0 0 0 17 181 553 808 709 762 656 27 11 16 46 557 934 956 1139 1135 1156 1002 930 1116 1178 1374 1688 1722 1591 1356 1199 1258 1411 1491 1418 1336 1309 1530 1925 2175 2239 2136 1929 1569 1262 1333 1179 836 461 276 179 193 205 141 47 23 15 0 0 44 226 413 514 904
0 0 0 0 0 0 0 0 0 0 0 0 0 0 0 0 0 0 0 0 0 0 0 0 0 0 28 54 666 789 865 1026 1060 983 916 744 539 688 882 900 1014 1078 1053 989 987 1164 1300 1462 1625 1578 1551 1609 1656 1700 1607 1537 1498 1397 1362 1458 1855 2209 2467 2512 2420 2153 1828 1668 1500 1153 760 562 344 201 209 197 94 70 95 83 61 116 257 519 620 790
0 0 0 0 0 0 0 0 0 0 0 0 0 0 0 0 0 0 1 1 0 1 0 0 0 0 0 0 93 711 794 903 891 944 782 704 618 580 649 562 564 869 975 994 992 1156 1457 1576 1613 1591 1683 1739 1708 1862 1870 1756 1586 1526 1540 1572 1650 2139 2568 2711 2695 2556 2301 2046 1734 1457 1105 929 726 420 241 236 199 131 150 228 305 332 439 642 839 878
0 0 0 0 0 0 0 0 0 0 0 0 0 0 0 0 0 0 0 0 0 0 0 0 1 6 0 0 34 511 526 748 935 874 734 590 486 484 552 579 828 1053 1019 1021 1009 1159 1350 1401 1474 1519 1690 1710 1712 1889 1994 1892 1726 1559 1523 1544 1560 1780 2327 2656 2732 2739 2624 2437 2158 1888 1553 1226 1070 844 523 353 331 302 296 303 434 647 726 808 971 1045
0 0 0 0 0 0 0 0 0 0 0 0 0 0 0 0 0 0 0 0 0 0 0 2 6 17 1 0 168 471 293 607 712 696 622 536 506 482 692 822 1010 1163 1079 1267 1685 1029 1121 1173 1194 1344 1549 1668 1611 1806 1978 1894 1816 1673 1569 1486 1517 1533 1839 2297 2615 2769 2696 2572 2428 2201 1831 1530 1348 1134 904 663 548 523 494 438 472 730 942 991 1020 1127
0 0 0 0 0 0 0 0 0 0 0 0 0 0 0 0 0 0 2 0 0 0 0 0 9 22 9 18 270 298 298 295 521 649 639 472 491 466 406 666 808 1087 919 1455 1707 1988 2159 1016 1370 1587 1637 1566 1520 1696 1804 1814 1771 1683 1608 1595 1561 1525 1471 1979 2442 2757 2766 2693 2576 2384 2112 1745 1539 1379 1216 1004 800 780 753 636 560 773 1082 1148 1093 1187
0 0 0 0 0 0 0 0 0 0 0 0 0 0 0 0 0 0 0 0 0 0 0 0 5 13 17 372 294 447 430 371 468 699 533 462 537 602 460 566 986 1105 1262 1442 1525 1628 1584 1590 2224 2110 1739 1669 1572 1559 1665 1689 1696 1670 1602 1612 1655 1681 1554 1844 2325 2682 2792 2832 2723 2563 2353 1984 1728 1644 1533 1308 1056 981 957 882 814 932 1241 1349 1242 1264
0 0 0 0 0 0 0 0 0 0 0 0 0 0 0 0 0 0 0 0 0 0 0 0 30 27 517 357 208 415 602 614 27 435 593 464 438 561 617 593 736 686 638 831 1424 1638 1652 1701 1822 1841 2082 1994 2034 2165 1786 1508 1643 1660 1642 1673 1722 1732 1680 1798 2236 2515 2732 2858 2838 2771 2594 2308 1861 1742 1649 1600 1366 1176 1075 1075 1059 1117 1383 1573 1511 1443
0 0 0 0 0 0 0 0 0 0 0 0 0 0 0 0 0 0 0 0 0 0 0 16 74 70 606 549 344 166 260 389 169 106 475 551 424 433 668 568 676 733 707 815 1274 1508 1616 1577 1642 1726 1788 1966 1910 1934 1831 1992 2274 1770 1745 1745 1724 1683 1748 1849 2004 2427 2740 2794 2902 2887 2756 2528 2099 1814 1725 1717 1658 1433 1280 1240 1236 1264 1445 1676 1706 1631
0 0 0 0 0 0 0 0 0 0 0 0 0 0 0 0 0 0 0 0 0 0 0 1 62 62 46 194 44 85 184 206 34 4 225 366 397 336 475 758 631 662 749 768 833 1268 1505 1643 1628 1682 1787 1744 1658 1626 1682 1722 2009 1952 1856 1778 1766 1848 1858 1678 1728 2490 2857 2901 3004 2898 2792 2616 2303 2008 1884 1859 1826 1658 1451 1355 1361 1366 1437 1691 1821 1769
3 4 0 2 0 0 0 0 0 0 0 0 0 0 94 123 83 49 24 23 7 0 15 54 81 46 20 44 73 60 212 58 28 24 12 129 254 295 306 652 704 596 608 585 677 913 1150 955 1691 1772 1753 1832 1821 1657 1728 1689 1765 1954 1939 1976 1990 1970 1841 1677 1376 1911 2088 3034 3052 2979 2841 2635 2395 2156 2082 1999 1953 1810 1596 1433 1422 1438 1444 1601 1867 1882
0 6 0 4 0 0 0 0 2 0 0 0 0 330 184 139 153 80 0 0 39 12 39 56 28 10 23 20 145 70 26 83 77 31 22 22 302 278 266 302 670 565 548 528 445 337 351 416 428 921 1354 1823 1943 1865 1709 1784 1588 1708 2013 1831 1872 1902 1885 1854 1944 2025 2280 2858 2963 2924 2831 2653 2428 2188 2215 2118 2064 1938 1728 1523 1449 1483 1504 1536 1785 1919
0 0 28 1 0 0 0 0 3 0 0 0 0 350 190 116 100 92 122 10 114 2 0 0 2 0 9 8 67 155 29 0 0 25 42 24 96 255 174 211 301 481 478 429 399 298 326 349 348 0 458 1160 1538 1792 1799 1785 1865 1702 1692 1599 1768 1666 1589 1575 1810 1938 2189 2711 2878 2851 2752 2619 2483 2267 2292 2197 2134 2073 1885 1630 1492 1515 1581 1563 1653 1886
31 1 5 0 0 0 0 0 0 0 0 0 118 244 162 149 119 138 62 23 0 0 0 0 0 0 1 2 13 15 85 2 5 5 13 12 70 138 168 127 200 271 280 306 301 272 253 271 323 336 390 449 839 1091 1333 1467 1471 1880 2136 1837 1228 1306 1451 1446 1680 1784 1928 2424 2797 2802 2692 2607 2473 2335 2327 2244 2174 2157 2079 1851 1606 1548 1643 1660 1596 1778
158 0 0 2 0 0 0 2 0 0 0 89 228 247 126 139 109 79 77 62 2 0 0 0 0 0 0 2 0 7 2 70 9 12 18 8 26 82 164 101 109 197 204 184 179 43 165 159 123 34 13 48 332 570 1160 1339 1323 1476 1662 2010 1857 1089 1250 1338 1529 1700 1856 2458 2790 2725 2762 2684 2533 2365 2411 2307 2208 2192 2192 2055 1799 1638 1740 1753 1658 1669
4 56 72 0 0 0 0 0 0 0 32 156 171 173 186 102 222 63 64 38 48 0 0 0 0 0 0 5 7 2 35 15 10 5 0 0 0 0 37 24 32 125 185 181 123 81 0 0 0 0 0 0 0 0 121 904 1255 1354 1556 1612 1952 2101 1206 1375 1557 1453 1963 2554 2763 2855 2879 2771 2609 2422 2492 2424 2300 2238 2263 2200 2027 1794 1795 1831 1736 1632
0 102 80 5 0 0 0 0 0 0 0 60 151 219 162 207 166 229 48 45 60 0 0 0 0 0 0 0 0 12 24 25 12 3 0 0 0 0 0 0 0 54 112 184 104 0 0 0 0 0 0 0 0 0 0 325 850 1237 1377 1590 1840 1929 2178 1322 1613 1894 2078 2558 2746 2868 2952 2875 2754 2626 2586 2545 2449 2360 2336 2350 2246 2014 1884 1878 1814 1685
0 1 6 0 0 17 2 0 0 99 161 101 142 104 164 127 98 107 26 76 0 0 0 0 0 0 0 0 0 18 3 4 1 0 0 0 0 0 0 0 0 0 0 94 102 0 0 0 0 0 0 0 0 0 0 0 131 799 1332 1637 1774 1908 2088 2233 1549 1668 1918 2786 2819 2897 3078 3016 2907 2780 2715 2691 2657 2531 2494 2476 2438 2259 2057 1970 1885 1740
0 2 0 1 1 2 0 0 0 180 0 4 33 24 48 32 47 15 39 0 0 0 0 0 0 0 1 0 0 0 0 0 0 0 0 0 0 0 0 0 0 0 0 0 0 0 0 0 0 0 0 0 0 0 0 0 0 662 1408 1658 1842 2019 2130 2279 2196 1440 1579 2849 2920 2951 3194 3197 3098 2946 2860 2896 2890 2789 2671 2631 2591 2474 2276 2114 1969 1843
1 1 1 0 1 0 0 1 0 0 70 0 8 8 64 85 123 37 5 0 0 0 0 0 0 0 0 0 0 0 0 0 0 0 0 0 0 0 0 0 0 0 0 0 0 0 0 0 0 0 0 0 0 0 0 0 0 236 1444 1807 1966 2125 2345 2586 2769 2092 1353 2314 2948 3015 3266 3338 3256 3138 3160 3177 3151 3024 2878 2837 2793 2668 2497 2302 2098 1937
2 1 0 2 6 2 1 6 8 65 23 13 4 2 4 25 32 12 3 0 0 0 0 0 0 0 0 1 1 0 0 0 0 0 0 0 0 0 0 0 0 0 0 0 0 0 0 0 0 0 0 0 0 0 79 481 0 393 1226 1856 2069 2291 2554 3112 3625 2836 1769 2088 2725 2904 3203 3394 3374 3308 3342 3395 3381 3257 3092 3093 3044 2904 2719 2494 2256 2070
0 2 4 0 4 6 2 1 0 4 95 2 28 17 17 2 9 2 1 1 0 0 0 0 0 0 0 2 1 1 2 0 0 0 0 0 0 0 0 0 0 0 0 0 0 0 0 0 0 0 0 0 0 0 248 594 608 737 1276 1959 2174 2370 2536 3481 4004 3260 2130 1772 2747 2910 3102 3414 3476 3459 3469 3573 3606 3490 3334 3337 3342 3235 3025 2716 2441 2243
0 0 0 0 2 21 1 2 2 6 0 0 1 5 0 0 0 0 1 1 2 1 1 0 0 0 2 4 5 2 2 3 1 0 0 0 0 0 0 0 0 0 0 0 0 0 0 0 2 9 2 107 179 340 482 626 822 892 1288 2000 2194 2582 3128 3906 4517 3601 2246 2157 2418 2819 3134 3500 3622 3651 3648 3724 3765 3706 3563 3518 3560 3494 3386 3109 2778 2553
0 0 0 0 0 0 0 29 5 0 0 0 5 0 0 0 0 0 0 0 0 0 0 0 1 3 2 5 6 7 8 8 6 2 0 0 0 0 1 0 0 0 0 0 0 0 0 0 0 0 0 0 158 260 393 746 879 1050 1499 2044 2560 2905 3131 3626 4316 3890 2618 2762 2891 2900 3174 3582 3728 3809 3824 3886 3917 3882 3779 3686 3714 3638 3598 3511 3230 2901
0 0 4 0 0 0 0 0 0 0 0 13 0 0 0 0 1 2 0 0 0 0 0 0 1 1 1 3 7 8 4 4 4 4 0 0 0 0 0 0 0 0 0 0 0 0 0 24 97 8 36 0 0 0 178 626 856 1346 1911 2323 2555 2987 3332 3724 4231 3726 2900 3036 3131 3117 3333 3641 3767 3908 3935 3954 4028 4066 4006 3837 3768 3717 3679 3706 3554 3264
0 0 0 0 0 0 0 0 0 0 0 28 3 0 0 0 0 0 0 0 0 0 0 0 0 1 4 3 3 8 5 5 6 5 0 0 0 0 0 0 0 0 0 0 0 0 0 0 169 180 7 6 63 179 392 622 894 1454 2031 2263 2593 3319 3361 3555 3919 3529 3006 3218 3244 3223 3419 3714 3823 3996 4048 4019 4006 4072 4097 4026 3848 3767 3767 3805 3801 3562
0 0 0 0 1 0 2 7 1 2 0 0 0 0 0 0 0 0 0 1 1 2 3 2 1 4 4 6 6 9 4 7 7 4 0 0 0 0 0 0 0 0 0 0 0 0 0 114 180 223 191 177 207 365 597 792 1054 1362 1897 2214 2694 3346 3372 3326 3720 3354 3246 3464 3376 3391 3475 3795 3957 4045 4088 4062 4028 4059 4158 4149 4091 4014 3883 3852 3888 3866
0 0 0 0 1 0 1 0 1 14 3 0 0 0 1 0 1 6 9 7 3 2 4 8 8 3 2 5 9 4 6 8 6 3 0 0 0 0 0 0 0 0 0 0 0 0 0 119 236 305 324 302 353 558 773 985 1189 1376 1666 2081 2572 3249 3375 3172 3727 3528 3667 3650 3573 3534 3553 3776 3970 4010 4066 4065 4040 4050 4131 4196 4177 4130 4084 4007 3964 4007
Wind_Speed
nan nan nan nan nan nan nan nan nan nan nan nan nan nan nan nan nan nan nan nan nan nan nan nan 40 36 30 26 21 23 20 16 15 16 15 13 11 14 14 13 14 15 14 14 13 13 14 13 8 7 8 8 5 nan nan nan nan 4 6 7 6 3 5 5 6 7 7 4 4 3 2 5 7 5 4 3 2 4 3 2 1 4 7 7 6 6
nan nan nan nan nan nan nan nan nan nan nan nan nan nan nan nan nan nan nan nan nan nan nan nan 41 45 39 26 27 24 21 18 18 17 16 16 14 13 14 14 13 15 13 15 13 11 14 13 11 7 7 8 7 5 nan 2 nan 3 6 7 5 5 6 6 6 6 8 6 5 2 nan nan nan 4 4 2 1 3 3 2 1 4 6 6 6 5
nan nan nan nan nan nan nan nan nan nan nan nan nan nan nan nan nan nan nan nan nan nan nan nan nan 45 42 32 26 25 20 18 21 22 18 18 17 15 14 16 13 15 13 15 14 11 13 14 11 8 7 7 7 7 8 3 nan 3 4 5 4 6 6 7 7 7 8 7 6 4 nan nan nan 7 5 3 2 3 3 1 2 4 5 6 6 6
nan nan nan nan nan nan nan nan nan nan nan nan nan nan nan nan nan nan nan nan nan nan nan nan nan 35 41 37 36 30 21 17 22 24 19 16 19 18 19 17 12 14 13 13 14 14 14 13 10 9 7 7 7 7 nan 5 5 nan 4 4 5 6 6 7 7 7 7 3 6 4 nan nan nan 6 5 5 4 2 3 0 3 4 4 5 6 6
nan nan nan nan nan nan nan nan nan nan nan nan nan nan nan nan nan nan nan nan nan nan nan nan 26 31 37 36 33 31 26 22 24 25 20 17 17 18 18 13 11 13 15 13 11 14 14 14 13 10 8 7 8 7 nan 5 nan nan 5 5 5 7 7 7 6 5 5 3 5 5 nan 5 5 8 6 6 2 1 1 1 4 3 3 4 5 6
nan nan nan nan nan nan nan nan nan nan nan nan nan nan nan nan nan nan nan nan nan nan nan nan nan 30 34 32 32 32 28 28 26 24 21 20 18 18 17 16 13 12 13 13 9 12 13 14 14 12 11 9 9 8 nan 5 nan nan 7 6 6 8 9 7 5 4 4 1 4 3 2 5 nan 5 nan nan 0 2 1 2 5 4 3 4 5 7
nan nan nan nan nan nan nan nan nan nan nan nan nan nan nan nan nan nan nan nan nan nan nan nan nan nan 30 27 26 29 30 29 22 17 17 18 18 18 16 16 15 14 12 8 9 8 12 13 15 14 13 11 11 11 nan 6 nan nan 8 8 8 8 9 7 4 4 3 4 5 4 4 4 nan 2 nan nan 4 2 4 5 5 5 5 5 6 7
nan nan nan nan nan nan nan nan nan nan nan nan nan nan nan nan nan nan nan nan nan nan nan nan nan nan 29 21 22 26 30 25 17 13 14 17 20 21 19 17 16 15 14 8 4 6 5 12 14 15 14 11 12 13 13 7 nan nan 9 9 9 9 9 8 5 4 3 3 4 5 6 4 nan nan nan nan nan 4 5 3 4 7 7 7 9 6
nan nan nan nan nan nan nan nan nan nan nan nan nan nan nan nan nan nan nan nan nan nan nan nan nan nan nan 21 24 31 33 24 13 12 18 22 23 22 21 19 18 18 15 12 7 5 5 7 14 14 13 10 12 13 15 11 8 10 10 10 10 9 8 8 5 5 4 4 4 5 7 4 nan nan nan 5 6 nan 6 4 6 6 8 8 9 7
nan nan nan nan nan nan nan nan nan nan nan nan nan nan nan nan nan nan nan nan nan nan nan nan nan nan nan nan 33 35 38 30 21 23 26 26 24 22 21 19 19 18 15 12 10 7 6 6 14 15 14 12 11 12 14 13 11 10 12 11 10 10 8 8 5 5 4 3 4 5 7 4 2 4 4 nan 6 nan nan 4 5 6 8 8 8 8
nan nan nan nan nan nan nan nan nan nan nan nan nan nan nan nan nan nan nan nan nan nan nan nan nan nan nan nan nan nan 36 31 29 27 24 22 21 20 19 20 19 18 16 13 11 8 8 7 15 17 15 13 10 11 15 14 14 11 11 12 11 10 9 8 5 5 5 4 4 4 6 3 4 2 nan nan 7 5 nan 6 5 6 7 7 7 8
nan nan nan nan nan nan nan nan nan nan nan nan nan nan nan nan nan nan nan nan nan nan nan nan nan nan nan nan nan nan nan 37 36 32 27 24 21 19 17 17 19 18 16 16 14 10 8 10 15 15 14 14 12 13 16 15 15 14 11 11 12 12 11 8 6 6 5 5 3 4 5 3 4 3 3 nan 5 5 nan nan 4 6 7 8 7 8
nan nan nan nan nan nan nan nan nan nan nan nan nan nan nan nan nan nan nan nan nan nan nan nan nan nan nan nan nan nan nan 33 35 32 33 30 25 21 18 18 18 17 17 17 15 12 11 11 13 14 13 13 12 11 15 16 16 15 12 10 11 11 11 10 8 6 5 5 4 4 4 4 4 4 4 nan nan 6 5 5 6 6 6 8 8 8
nan nan nan nan nan nan nan nan nan nan nan nan nan nan nan nan nan nan nan nan nan nan nan nan nan nan nan nan nan nan nan nan 34 35 34 34 29 24 20 17 16 18 20 18 15 14 13 11 12 13 13 12 10 10 13 15 15 14 13 10 8 9 11 11 9 7 6 5 5 5 4 5 4 5 5 5 5 nan 6 6 5 7 6 6 6 6
nan nan nan nan nan nan nan nan nan nan nan nan nan nan nan nan nan nan nan nan nan nan nan nan nan nan nan nan nan nan nan nan 30 34 32 34 33 30 26 24 21 20 20 17 16 18 16 13 13 12 12 11 10 9 12 14 14 14 15 12 8 8 9 11 10 9 7 7 6 6 4 5 5 5 6 6 6 nan 7 8 7 7 8 7 7 6
nan nan nan nan nan nan nan nan nan nan nan nan nan nan nan nan nan nan nan nan nan nan nan nan nan nan nan nan nan nan nan nan nan 35 35 33 34 32 31 29 24 19 15 16 17 18 17 15 15 13 11 11 9 9 10 14 13 14 15 15 10 8 8 9 10 9 8 8 8 6 5 4 5 6 8 9 8 nan nan 8 8 8 8 8 8 8
nan nan nan nan nan nan nan nan nan nan nan nan nan nan nan nan nan nan nan nan nan nan nan nan nan nan nan nan nan nan nan nan nan nan 37 36 35 37 34 29 25 18 16 18 19 18 16 15 15 15 13 11 10 10 11 11 12 15 16 16 13 9 8 7 9 10 10 9 8 7 5 5 6 5 5 7 8 6 7 8 nan 9 9 9 8 8
nan nan nan nan nan nan nan nan nan nan nan nan nan nan nan nan nan nan nan nan nan nan nan nan nan nan nan nan nan nan nan nan nan nan 32 36 35 34 33 31 26 22 20 22 23 21 18 16 17 16 13 11 11 13 12 11 11 13 15 18 17 11 8 8 9 11 12 10 8 8 6 5 4 5 nan nan nan 10 8 9 9 9 10 9 8 6
nan nan nan nan nan nan nan nan nan nan nan nan nan nan nan nan nan nan nan nan nan nan nan nan nan nan nan nan nan nan nan nan nan nan nan 36 32 29 30 31 29 28 24 22 22 21 17 15 15 15 13 11 11 11 11 11 11 12 13 17 19 15 10 10 12 13 14 12 11 10 7 6 6 nan nan nan nan nan 9 8 8 8 8 8 10 7
nan nan nan nan nan nan nan nan nan nan nan nan nan nan nan nan nan nan nan nan nan nan nan nan nan nan nan nan nan nan nan nan nan nan nan 37 35 30 27 26 28 28 24 17 17 17 16 16 16 14 14 14 13 11 10 12 11 13 14 16 18 17 13 13 12 12 12 12 12 11 10 8 8 nan nan nan nan nan nan 9 10 8 9 7 8 9
nan nan nan nan nan nan nan nan nan nan nan nan nan nan nan nan nan nan nan nan nan nan nan nan nan nan nan nan nan nan nan nan nan nan nan nan 37 33 27 24 25 29 22 15 14 17 19 19 17 14 15 16 14 12 11 10 11 12 12 13 17 19 18 14 11 11 12 14 12 11 8 8 8 nan nan nan nan nan nan nan 10 11 10 11 8 8
nan nan nan nan nan nan nan nan nan nan nan nan nan nan nan nan nan nan nan nan nan nan nan nan nan nan nan nan nan nan 32 6 nan nan nan nan 33 41 32 27 28 28 25 20 18 19 20 21 19 16 16 16 14 13 12 10 9 10 10 10 12 15 16 16 12 10 11 12 12 9 9 8 9 9 nan nan nan nan nan nan nan 11 12 12 11 10
nan nan nan nan nan nan nan nan nan nan nan nan nan nan nan nan nan nan nan nan nan nan nan nan nan nan nan nan nan 41 33 30 nan nan nan nan nan 42 35 31 29 28 27 24 20 17 17 20 20 19 19 15 13 13 13 11 9 9 9 10 9 11 14 15 13 11 11 12 12 10 11 11 10 10 8 nan nan nan nan nan nan nan 11 11 12 12
nan nan nan nan nan nan nan nan nan nan nan nan nan nan nan nan nan nan nan nan nan nan nan nan nan nan nan 31 35 42 47 47 30 nan nan nan nan 33 30 31 30 26 23 23 21 15 13 17 20 20 16 12 12 14 15 12 10 10 10 10 9 11 12 12 12 12 12 11 10 11 12 11 10 8 7 6 nan nan nan nan nan nan 11 11 13 12
nan nan nan nan nan nan nan nan nan nan nan nan nan nan nan nan nan nan nan nan nan nan nan nan nan nan nan nan 38 43 43 41 41 47 40 34 27 31 28 23 25 25 21 22 20 15 15 16 18 17 14 13 13 13 14 14 12 12 10 9 9 9 10 10 10 12 12 11 10 11 11 9 9 7 5 5 nan nan nan nan nan 12 11 12 12 12
nan nan nan nan nan nan nan nan nan nan nan nan nan nan nan nan nan nan nan nan nan nan nan nan nan nan nan nan nan 48 40 36 39 43 45 42 40 42 49 47 29 23 23 21 16 16 16 15 17 18 18 15 12 12 15 15 13 12 10 8 9 8 7 8 9 10 11 12 11 10 8 8 7 4 4 5 7 7 9 9 11 11 12 12 11 12
nan nan nan nan nan nan nan nan nan nan nan nan nan nan nan nan nan nan nan nan nan nan nan nan nan nan nan nan nan 55 47 41 40 42 44 41 39 38 43 51 51 44 31 21 17 17 17 16 15 17 19 17 14 13 15 16 14 12 10 10 10 9 6 6 7 9 10 11 10 9 8 8 5 5 5 6 7 10 11 10 10 11 11 12 12 12
nan nan nan nan nan nan nan nan nan nan nan nan nan nan nan nan nan nan nan nan nan nan nan nan nan nan nan nan 52 56 56 51 46 42 45 47 45 41 39 45 52 50 56 59 49 26 17 16 16 17 17 17 16 16 17 17 16 14 12 12 13 10 7 4 4 7 8 9 9 8 7 6 6 6 6 8 9 10 10 10 11 11 13 14 12 11
nan nan nan nan nan nan nan nan nan nan nan nan nan nan nan nan nan nan nan nan nan nan nan nan nan nan nan nan 56 54 56 57 52 46 46 48 49 46 45 48 51 53 56 54 53 56 45 31 22 18 18 18 18 18 18 19 19 17 16 17 17 13 8 6 4 4 6 7 8 8 6 6 7 7 8 9 9 9 10 10 11 13 14 15 13 12
nan nan nan nan nan nan nan nan nan nan nan nan nan nan nan nan nan nan nan nan nan nan nan nan nan nan nan 55 58 56 55 56 53 49 48 51 51 48 49 53 54 52 52 54 56 55 49 49 50 46 40 34 26 22 21 22 21 20 18 18 18 17 14 12 7 5 5 6 7 7 7 6 5 6 7 8 8 8 9 11 12 13 14 15 14 14
nan nan nan nan nan nan nan nan nan nan nan nan nan nan nan nan nan nan nan nan nan nan nan nan nan nan 49 50 58 59 54 55 nan 55 53 53 52 52 52 55 55 52 49 51 53 54 52 51 49 49 48 48 47 45 42 37 27 23 21 21 20 19 18 15 11 8 5 4 7 8 7 6 5 5 6 7 8 9 10 10 12 13 14 15 16 15
nan nan nan nan nan nan nan nan nan nan nan nan nan nan nan nan nan nan nan nan nan nan nan nan nan nan 53 56 59 60 61 62 60 57 57 56 56 56 54 53 53 51 49 48 49 49 51 50 49 45 45 46 45 44 43 44 42 35 30 28 26 27 28 23 16 10 7 6 8 8 7 5 5 5 5 6 7 9 10 11 11 11 13 15 16 17
nan nan nan nan nan nan nan nan nan nan nan nan nan nan nan nan nan nan nan nan nan nan nan nan nan nan nan 64 nan nan 72 69 nan nan 62 62 57 58 58 56 53 51 49 48 47 48 50 48 46 44 45 45 45 42 44 44 42 40 39 43 46 51 51 44 31 18 12 10 8 7 7 6 4 4 5 6 7 8 10 10 10 11 12 13 16 19
nan nan nan nan nan nan nan nan nan nan nan nan nan nan nan 64 nan nan nan nan nan nan nan nan nan nan nan nan nan nan 69 nan nan nan nan 65 58 57 57 57 56 53 52 50 51 51 50 48 49 48 47 46 45 45 37 37 37 39 43 43 41 41 39 37 40 43 29 10 8 6 7 6 4 3 4 5 6 8 8 8 9 10 12 14 17 18
nan nan nan nan nan nan nan nan nan nan nan nan nan 61 64 67 72 nan nan nan nan nan nan nan nan nan nan nan 64 nan nan nan nan nan nan nan 66 61 60 58 57 57 55 53 54 53 50 50 50 48 48 47 47 46 44 41 36 39 42 40 35 30 28 28 24 16 17 14 5 7 7 6 4 3 4 5 6 7 6 6 8 10 12 14 15 16
nan nan nan nan nan nan nan nan nan nan nan nan nan 52 56 62 nan nan 69 nan 75 nan nan nan nan nan nan nan nan 69 nan nan nan nan nan nan nan 69 65 62 61 60 59 57 56 54 53 55 53 nan 46 43 44 46 45 43 43 41 33 30 29 25 22 21 18 13 10 4 5 7 8 7 6 6 7 7 6 6 6 5 7 9 13 14 14 16
nan nan nan nan nan nan nan nan nan nan nan nan 34 42 49 54 65 69 nan nan nan nan nan nan nan nan nan nan nan nan nan nan nan nan nan nan nan 73 70 67 66 64 61 59 58 57 55 55 55 52 47 44 44 46 44 43 42 41 40 30 21 23 23 21 16 12 10 9 9 9 9 8 8 8 8 8 7 6 6 6 7 10 14 13 13 15
29 nan nan nan nan nan nan nan nan nan nan nan 29 32 38 44 55 nan nan nan nan nan nan nan nan nan nan nan nan nan nan nan nan nan nan nan nan nan 74 71 68 66 65 62 60 nan 57 55 55 nan nan nan 48 47 49 49 45 44 42 39 30 23 22 19 13 9 10 9 9 11 11 10 10 10 10 9 7 6 6 7 8 10 13 12 13 13
nan nan nan nan nan nan nan nan nan nan nan 31 29 30 32 36 46 nan nan nan nan nan nan nan nan nan nan nan nan nan nan nan nan nan nan nan nan nan nan nan nan 68 66 65 64 nan nan nan nan nan nan nan nan nan 51 50 47 43 40 39 36 28 19 15 11 10 9 9 8 10 12 12 12 12 11 9 8 8 8 8 9 11 12 12 13 14
nan 23 nan nan nan nan nan nan nan nan nan nan 31 31 34 35 40 45 nan nan nan nan nan nan nan nan nan nan nan nan nan nan nan nan nan nan nan nan nan nan nan nan 68 67 66 nan nan nan nan nan nan nan nan nan nan 48 44 40 38 37 34 31 24 14 12 12 12 12 11 11 12 13 12 12 12 10 10 10 9 11 12 12 11 13 14 15
nan nan nan nan nan nan nan nan nan nan 33 35 31 29 28 33 nan 41 nan nan nan nan nan nan nan nan nan nan nan nan nan nan nan nan nan nan nan nan nan nan nan nan nan nan 70 nan nan nan nan nan nan nan nan nan nan nan 44 40 38 36 33 29 24 20 16 18 21 20 17 14 12 13 13 12 12 13 14 14 13 13 12 13 13 13 14 15
nan nan nan nan nan nan nan nan nan 31 nan nan nan nan nan nan nan nan nan nan nan nan nan nan nan nan nan nan nan nan nan nan nan nan nan nan nan nan nan nan nan nan nan nan nan nan nan nan nan nan nan nan nan nan nan nan nan 40 38 36 32 27 26 24 21 21 23 23 19 16 14 13 14 14 16 17 18 17 14 14 14 15 14 15 15 15
nan nan nan nan nan nan nan nan nan nan nan nan nan nan nan nan 35 nan nan nan nan nan nan nan nan nan nan nan nan nan nan nan nan nan nan nan nan nan nan nan nan nan nan nan nan nan nan nan nan nan nan nan nan nan nan nan nan 40 38 32 28 29 28 28 24 21 20 22 21 18 17 16 17 18 20 19 18 18 17 17 16 15 17 16 16 16
nan nan nan nan nan nan nan nan nan nan nan nan nan nan nan nan nan nan nan nan nan nan nan nan nan nan nan nan nan nan nan nan nan nan nan nan nan nan nan nan nan nan nan nan nan nan nan nan nan nan nan nan nan nan nan 46 nan 41 38 33 31 32 30 28 25 21 21 22 21 19 19 19 20 21 21 20 20 20 20 19 17 17 18 18 18 18
nan nan nan nan nan nan nan nan nan nan nan nan nan nan nan nan nan nan nan nan nan nan nan nan nan nan nan nan nan nan nan nan nan nan nan nan nan nan nan nan nan nan nan nan nan nan nan nan nan nan nan nan nan nan 48 46 43 42 39 37 37 35 35 32 27 21 22 23 22 20 20 21 22 22 23 22 22 22 22 21 20 19 18 19 19 19
nan nan nan nan nan nan nan nan nan nan nan nan nan nan nan nan nan nan nan nan nan nan nan nan nan nan nan nan nan nan nan nan nan nan nan nan nan nan nan nan nan nan nan nan nan nan nan nan nan nan nan 55 53 51 50 47 43 41 40 40 39 37 36 33 29 24 22 23 22 20 21 22 22 23 24 25 24 23 24 24 23 20 20 19 18 18
nan nan nan nan nan nan nan nan nan nan nan nan nan nan nan nan nan nan nan nan nan nan nan nan nan nan nan nan nan nan nan nan nan nan nan nan nan nan nan nan nan nan nan nan nan nan nan nan nan nan nan nan 52 49 47 46 43 39 40 40 39 39 39 37 29 25 24 25 25 24 23 22 22 24 25 26 27 26 27 27 25 22 20 18 16 16
nan nan nan nan nan nan nan nan nan nan nan nan nan nan nan nan nan nan nan nan nan nan nan nan nan nan nan nan nan nan nan nan nan nan nan nan nan nan nan nan nan nan nan nan nan nan nan nan nan nan nan nan nan nan 46 46 43 42 41 40 40 43 43 37 29 26 26 26 29 28 25 23 22 24 27 28 29 28 27 26 24 22 19 16 15 16
nan nan nan nan nan nan nan nan nan nan nan nan nan nan nan nan nan nan nan nan nan nan nan nan nan nan nan nan nan nan nan nan nan nan nan nan nan nan nan nan nan nan nan nan nan nan nan nan 56 53 nan nan nan 46 46 44 44 43 41 44 46 45 45 39 31 28 27 29 31 30 30 29 28 28 28 29 29 28 26 25 25 23 19 17 17 16
nan nan nan nan nan nan nan nan nan nan nan nan nan nan nan nan nan nan nan nan nan nan nan nan nan nan nan nan nan nan nan nan nan nan nan nan nan nan nan nan nan nan nan nan nan nan nan 57 55 53 51 47 45 45 43 43 46 45 45 45 44 44 45 45 39 33 32 34 34 35 36 36 34 32 30 28 28 29 33 41 40 33 23 18 16 14
nan nan nan nan nan nan nan nan nan nan nan nan nan nan nan nan nan nan nan nan nan nan nan nan nan nan nan nan nan nan nan nan nan nan nan nan nan nan nan nan nan nan nan nan nan nan nan 55 55 52 51 52 51 47 47 49 49 50 46 46 46 45 44 44 45 42 42 41 39 39 38 38 38 35 32 29 29 32 34 34 38 47 44 36 25 18
Wind_Direction
nan nan nan nan nan nan nan nan nan nan nan nan nan nan nan nan nan nan nan nan nan nan nan nan 305 302 310 324 329 313 303 296 294 294 291 300 302 296 299 299 296 295 298 299 298 292 295 308 286 282 290 297 295 nan nan nan nan 332 297 314 309 247 207 187 173 155 165 163 175 198 81 96 104 94 103 73 294 308 315 312 160 124 130 128 127 130
nan nan nan nan nan nan nan nan nan nan nan nan nan nan nan nan nan nan nan nan nan nan nan nan 299 305 308 320 327 313 311 313 309 297 293 299 296 290 293 283 298 290 280 296 292 295 298 304 314 303 294 298 308 296 nan 307 nan 312 295 315 302 223 204 190 178 167 171 168 175 197 nan nan nan 125 111 114 292 304 297 294 148 135 129 127 126 122
nan nan nan nan nan nan nan nan nan nan nan nan nan nan nan nan nan nan nan nan nan nan nan nan nan 304 311 317 319 320 321 314 313 307 297 292 300 293 299 291 264 282 283 298 306 307 291 301 315 298 305 298 308 303 326 283 nan 293 280 298 286 218 210 200 189 180 182 176 175 198 nan nan nan 138 118 133 266 293 296 293 155 142 134 129 125 118
nan nan nan nan nan nan nan nan nan nan nan nan nan nan nan nan nan nan nan nan nan nan nan nan nan 295 308 308 315 318 317 306 316 309 294 298 302 301 311 307 283 280 271 292 305 311 306 307 304 294 306 299 294 303 nan 293 290 nan 240 273 258 224 216 212 197 196 190 195 172 183 nan nan nan 131 138 172 257 253 281 264 149 156 135 127 124 115
nan nan nan nan nan nan nan nan nan nan nan nan nan nan nan nan nan nan nan nan nan nan nan nan 233 263 278 285 293 302 303 303 312 302 295 298 299 295 293 298 299 306 294 277 290 296 308 305 308 310 309 303 303 313 nan 300 nan nan 258 272 257 227 220 214 216 205 209 208 175 182 nan 174 170 166 157 182 226 207 221 177 162 156 144 135 125 115
nan nan nan nan nan nan nan nan nan nan nan nan nan nan nan nan nan nan nan nan nan nan nan nan nan 235 262 286 296 295 295 307 312 307 303 300 300 294 301 312 307 304 299 287 278 304 312 313 308 316 321 319 311 320 nan 280 nan nan 250 259 248 223 217 221 223 218 214 175 178 175 185 189 nan 165 nan nan 121 139 136 129 161 176 153 143 129 123
nan nan nan nan nan nan nan nan nan nan nan nan nan nan nan nan nan nan nan nan nan nan nan nan nan nan 250 270 287 293 300 301 297 299 292 297 301 303 307 314 317 315 304 257 225 272 313 317 312 313 326 322 318 320 nan 276 nan nan 256 264 255 234 221 226 227 208 216 194 164 169 201 210 nan 170 nan nan 145 131 150 167 168 169 158 138 133 119
nan nan nan nan nan nan nan nan nan nan nan nan nan nan nan nan nan nan nan nan nan nan nan nan nan nan 234 260 287 288 286 285 284 269 291 308 314 316 312 321 325 319 317 294 256 293 287 318 314 314 324 323 323 319 330 307 nan nan 262 268 257 234 230 228 229 213 198 195 181 179 201 233 nan nan nan nan nan 130 149 168 164 163 151 139 137 133
nan nan nan nan nan nan nan nan nan nan nan nan nan nan nan nan nan nan nan nan nan nan nan nan nan nan nan 251 286 282 269 264 254 274 301 312 314 314 316 324 326 322 318 313 308 324 313 308 312 302 319 323 324 328 335 326 303 259 261 266 249 245 241 228 256 225 196 204 194 186 211 229 nan nan nan 135 135 nan 160 177 169 161 153 146 136 145
nan nan nan nan nan nan nan nan nan nan nan nan nan nan nan nan nan nan nan nan nan nan nan nan nan nan nan nan 262 265 271 273 275 292 304 308 308 310 315 318 319 314 308 315 321 321 328 297 303 300 314 329 335 339 334 334 317 278 264 269 264 251 241 230 255 233 216 214 209 196 205 225 242 200 160 nan 150 nan nan 178 169 165 164 156 143 153
nan nan nan nan nan nan nan nan nan nan nan nan nan nan nan nan nan nan nan nan nan nan nan nan nan nan nan nan nan nan 271 285 284 284 290 294 297 304 312 314 312 312 313 311 311 316 320 289 298 300 321 339 341 344 343 346 342 310 287 279 276 262 245 238 249 251 235 225 221 204 203 212 232 240 nan nan 163 148 nan 176 163 173 168 164 148 157
nan nan nan nan nan nan nan nan nan nan nan nan nan nan nan nan nan nan nan nan nan nan nan nan nan nan nan nan nan nan nan 301 298 300 299 302 308 308 313 313 312 312 311 310 306 302 299 279 293 307 321 341 354 349 352 355 347 333 309 285 283 267 259 246 246 250 239 227 239 217 208 208 213 242 216 nan 158 159 nan nan 167 173 178 165 159 150
nan nan nan nan nan nan nan nan nan nan nan nan nan nan nan nan nan nan nan nan nan nan nan nan nan nan nan nan nan nan nan 295 306 304 306 311 315 315 319 323 311 306 307 312 305 292 291 295 303 320 323 337 351 353 355 357 350 337 321 299 289 283 270 258 256 257 244 231 238 237 217 197 205 217 232 nan nan 163 161 162 180 187 171 168 161 147
nan nan nan nan nan nan nan nan nan nan nan nan nan nan nan nan nan nan nan nan nan nan nan nan nan nan nan nan nan nan nan nan 305 305 308 308 310 314 315 311 305 301 303 304 304 299 298 306 309 316 322 329 346 351 355 358 350 338 328 312 288 287 275 259 261 260 247 234 232 241 222 198 198 212 233 211 178 nan 163 176 175 182 176 163 145 147
nan nan nan nan nan nan nan nan nan nan nan nan nan nan nan nan nan nan nan nan nan nan nan nan nan nan nan nan nan nan nan nan 278 297 301 307 311 314 308 298 299 307 303 297 298 304 309 307 307 311 311 321 339 351 356 358 350 340 333 322 297 264 265 262 265 255 258 237 229 232 224 204 192 208 228 228 195 nan 170 174 182 177 180 173 158 149
nan nan nan nan nan nan nan nan nan nan nan nan nan nan nan nan nan nan nan nan nan nan nan nan nan nan nan nan nan nan nan nan nan 286 304 302 299 301 294 292 295 301 308 310 308 315 317 308 301 293 301 310 324 345 353 357 352 344 333 328 312 275 263 258 256 253 255 243 231 231 232 212 199 202 218 229 218 nan nan 178 183 180 180 171 170 168
nan nan nan nan nan nan nan nan nan nan nan nan nan nan nan nan nan nan nan nan nan nan nan nan nan nan nan nan nan nan nan nan nan nan 299 298 300 297 294 299 304 298 300 303 312 316 317 306 297 295 301 310 324 343 353 355 351 342 330 329 322 283 248 245 246 249 246 242 235 237 236 218 207 209 218 234 241 236 200 191 nan 184 180 182 182 180
nan nan nan nan nan nan nan nan nan nan nan nan nan nan nan nan nan nan nan nan nan nan nan nan nan nan nan nan nan nan nan nan nan nan 290 298 293 295 294 297 303 305 297 301 300 304 313 305 301 300 301 312 332 343 349 345 337 334 328 331 329 304 271 240 230 231 231 233 231 233 239 229 220 213 nan nan nan 236 230 207 194 186 189 188 189 194
nan nan nan nan nan nan nan nan nan nan nan nan nan nan nan nan nan nan nan nan nan nan nan nan nan nan nan nan nan nan nan nan nan nan nan 306 296 295 289 294 301 301 295 290 288 291 303 302 306 309 308 312 320 333 339 330 325 328 329 333 333 324 289 253 227 219 216 219 216 217 230 241 225 nan nan nan nan nan 240 240 221 205 197 200 204 211
nan nan nan nan nan nan nan nan nan nan nan nan nan nan nan nan nan nan nan nan nan nan nan nan nan nan nan nan nan nan nan nan nan nan nan 314 317 295 282 288 292 289 291 298 292 293 298 307 317 322 318 318 316 314 320 323 320 333 334 332 337 329 297 264 245 228 219 215 210 209 213 220 226 nan nan nan nan nan nan 243 245 233 226 224 222 225
nan nan nan nan nan nan nan nan nan nan nan nan nan nan nan nan nan nan nan nan nan nan nan nan nan nan nan nan nan nan nan nan nan nan nan nan 316 310 295 289 283 284 287 289 291 288 293 295 303 313 316 318 309 301 307 316 324 330 331 333 338 337 326 307 279 249 227 220 211 210 214 220 226 nan nan nan nan nan nan nan 242 246 242 240 244 244
nan nan nan nan nan nan nan nan nan nan nan nan nan nan nan nan nan nan nan nan nan nan nan nan nan nan nan nan nan nan 207 259 nan nan nan nan 302 317 305 294 282 280 284 289 284 289 290 285 286 290 298 303 303 301 309 311 306 313 326 327 331 341 339 326 300 264 244 230 221 215 212 216 221 227 nan nan nan nan nan nan nan 244 248 254 257 262
nan nan nan nan nan nan nan nan nan nan nan nan nan nan nan nan nan nan nan nan nan nan nan nan nan nan nan nan nan 200 205 192 nan nan nan nan nan 315 307 298 290 283 285 282 280 283 286 281 280 287 296 298 306 303 304 301 305 307 305 301 317 343 348 336 319 285 249 233 226 220 214 214 219 225 231 nan nan nan nan nan nan nan 249 257 256 261
nan nan nan nan nan nan nan nan nan nan nan nan nan nan nan nan nan nan nan nan nan nan nan nan nan nan nan 184 188 198 212 213 203 nan nan nan nan 312 299 300 286 277 274 275 269 267 265 263 272 282 289 289 284 288 298 295 292 292 290 294 311 346 348 339 323 296 268 245 231 228 222 217 216 230 234 237 nan nan nan nan nan nan 240 249 254 262
nan nan nan nan nan nan nan nan nan nan nan nan nan nan nan nan nan nan nan nan nan nan nan nan nan nan nan nan 188 187 201 214 201 200 198 202 212 228 230 243 273 278 270 262 261 261 253 251 266 272 283 285 277 274 281 285 281 283 282 277 299 329 338 335 324 312 294 270 248 233 227 223 223 231 247 247 nan nan nan nan nan 236 239 243 249 257
nan nan nan nan nan nan nan nan nan nan nan nan nan nan nan nan nan nan nan nan nan nan nan nan nan nan nan nan nan 174 180 194 200 202 199 198 207 209 212 219 250 276 271 272 268 263 254 252 254 256 267 271 269 266 274 279 279 279 275 277 269 282 313 333 325 322 307 288 269 248 241 227 221 230 257 261 250 254 252 247 245 246 243 245 249 252
nan nan nan nan nan nan nan nan nan nan nan nan nan nan nan nan nan nan nan nan nan nan nan nan nan nan nan nan nan 174 176 182 191 198 201 201 212 212 209 212 217 218 229 253 278 262 255 252 255 262 268 262 251 254 268 277 277 269 264 267 267 266 282 315 329 327 319 306 296 271 260 244 230 222 229 244 247 244 245 248 250 253 255 253 252 254
nan nan nan nan nan nan nan nan nan nan nan nan nan nan nan nan nan nan nan nan nan nan nan nan nan nan nan nan 184 178 181 185 186 197 200 210 216 214 208 210 211 216 223 220 209 214 256 260 255 257 260 250 241 251 261 265 265 262 257 261 260 256 258 250 314 325 321 312 309 297 284 262 245 233 229 233 238 242 247 248 249 252 254 257 262 260
nan nan nan nan nan nan nan nan nan nan nan nan nan nan nan nan nan nan nan nan nan nan nan nan nan nan nan nan 190 185 185 190 187 196 209 215 215 212 212 213 210 212 219 220 217 215 207 205 215 243 249 246 248 253 256 251 250 244 238 240 244 244 245 243 255 293 302 310 319 318 306 278 254 244 240 242 245 249 251 251 250 251 252 257 262 257
nan nan nan nan nan nan nan nan nan nan nan nan nan nan nan nan nan nan nan nan nan nan nan nan nan nan nan 193 190 186 189 190 192 194 209 213 210 204 208 210 208 209 213 216 220 217 212 208 208 207 210 215 228 239 238 236 238 244 245 244 245 246 245 240 237 257 285 304 311 301 300 293 275 266 261 256 258 259 258 254 252 252 254 259 263 262
nan nan nan nan nan nan nan nan nan nan nan nan nan nan nan nan nan nan nan nan nan nan nan nan nan nan 196 194 196 193 193 194 nan 198 201 209 205 200 202 206 206 207 210 215 218 218 215 213 211 211 214 217 219 216 212 212 220 229 233 234 237 239 243 242 232 233 251 269 269 279 286 291 304 299 293 281 269 259 258 257 252 251 254 258 262 265
nan nan nan nan nan nan nan nan nan nan nan nan nan nan nan nan nan nan nan nan nan nan nan nan nan nan 200 193 193 197 197 200 204 203 197 201 202 198 200 203 206 206 211 214 216 219 221 216 210 211 214 214 218 219 221 223 222 222 221 222 223 223 224 224 220 216 222 224 237 255 273 289 305 321 326 300 287 273 264 256 255 254 254 257 263 262
nan nan nan nan nan nan nan nan nan nan nan nan nan nan nan nan nan nan nan nan nan nan nan nan nan nan nan 203 nan nan 197 201 nan nan 199 199 201 199 198 202 205 211 214 216 219 222 221 218 215 209 212 212 219 223 226 224 223 225 234 235 231 225 216 203 191 190 200 208 230 242 254 259 292 331 327 323 305 281 267 261 259 258 255 258 259 259
nan nan nan nan nan nan nan nan nan nan nan nan nan nan nan 222 nan nan nan nan nan nan nan nan nan nan nan nan nan nan 197 nan nan nan nan 202 202 201 201 201 203 208 214 217 220 220 219 217 213 208 204 205 208 212 222 231 228 231 233 232 238 244 243 234 210 186 171 186 213 236 243 250 273 311 320 305 295 285 280 270 262 260 252 247 251 258
nan nan nan nan nan nan nan nan nan nan nan nan nan 229 221 220 223 nan nan nan nan nan nan nan nan nan nan nan 203 nan nan nan nan nan nan nan 203 203 203 204 204 205 209 212 214 214 216 214 211 209 204 200 202 207 210 211 223 229 234 242 247 248 246 244 240 216 172 160 221 243 256 260 265 284 280 285 293 293 295 283 252 249 247 247 251 256
nan nan nan nan nan nan nan nan nan nan nan nan nan 230 222 223 nan nan 219 nan 221 nan nan nan nan nan nan nan nan 199 nan nan nan nan nan nan nan 203 204 208 208 205 206 208 206 208 211 209 206 nan 208 205 205 207 209 210 208 215 223 233 241 237 234 233 232 217 230 242 266 274 280 286 279 275 273 280 289 303 308 289 260 247 243 244 243 245
nan nan nan nan nan nan nan nan nan nan nan nan 218 228 222 220 219 223 nan nan nan nan nan nan nan nan nan nan nan nan nan nan nan nan nan nan nan 206 204 206 206 205 206 206 204 203 208 205 204 202 203 208 207 209 214 214 208 205 211 216 222 230 235 234 222 224 257 277 298 294 288 289 288 279 278 282 295 313 309 293 268 242 237 239 243 247
286 nan nan nan nan nan nan nan nan nan nan nan 243 231 222 217 219 nan nan nan nan nan nan nan nan nan nan nan nan nan nan nan nan nan nan nan nan nan 202 201 202 203 205 205 205 nan 205 205 205 nan nan nan 207 210 211 211 209 207 205 203 203 218 229 228 225 247 261 263 292 297 287 281 281 277 275 279 302 313 293 280 261 254 243 241 243 246
nan nan nan nan nan nan nan nan nan nan nan 238 229 226 222 221 222 nan nan nan nan nan nan nan nan nan nan nan nan nan nan nan nan nan nan nan nan nan nan nan nan 202 203 204 203 nan nan nan nan nan nan nan nan nan 207 208 205 206 202 199 199 209 224 236 246 252 254 253 270 281 276 270 269 271 275 283 292 287 285 280 272 259 248 241 239 239
nan 279 nan nan nan nan nan nan nan nan nan nan 226 222 218 218 220 223 nan nan nan nan nan nan nan nan nan nan nan nan nan nan nan nan nan nan nan nan nan nan nan nan 201 202 202 nan nan nan nan nan nan nan nan nan nan 209 209 203 200 200 203 203 206 229 252 243 232 234 237 241 254 254 258 261 269 276 273 272 273 262 259 264 259 247 241 241
nan nan nan nan nan nan nan nan nan nan 241 230 223 215 213 222 nan 229 nan nan nan nan nan nan nan nan nan nan nan nan nan nan nan nan nan nan nan nan nan nan nan nan nan nan 201 nan nan nan nan nan nan nan nan nan nan nan 209 205 203 203 203 201 195 196 219 231 228 232 234 238 247 248 251 256 254 255 258 260 258 259 263 265 263 258 249 245
nan nan nan nan nan nan nan nan nan 244 nan nan nan nan nan nan nan nan nan nan nan nan nan nan nan nan nan nan nan nan nan nan nan nan nan nan nan nan nan nan nan nan nan nan nan nan nan nan nan nan nan nan nan nan nan nan nan 206 205 203 198 194 192 192 205 223 231 235 237 239 247 255 252 249 241 244 248 251 255 256 259 260 265 260 256 255
nan nan nan nan nan nan nan nan nan nan nan nan nan nan nan nan 238 nan nan nan nan nan nan nan nan nan nan nan nan nan nan nan nan nan nan nan nan nan nan nan nan nan nan nan nan nan nan nan nan nan nan nan nan nan nan nan nan 201 203 201 193 193 193 191 199 221 234 238 240 243 249 252 257 249 239 241 248 253 252 249 252 257 261 264 263 261
nan nan nan nan nan nan nan nan nan nan nan nan nan nan nan nan nan nan nan nan nan nan nan nan nan nan nan nan nan nan nan nan nan nan nan nan nan nan nan nan nan nan nan nan nan nan nan nan nan nan nan nan nan nan nan 206 nan 198 196 189 191 195 197 197 198 220 238 242 244 248 251 255 255 252 247 247 246 248 249 247 248 251 255 261 263 260
nan nan nan nan nan nan nan nan nan nan nan nan nan nan nan nan nan nan nan nan nan nan nan nan nan nan nan nan nan nan nan nan nan nan nan nan nan nan nan nan nan nan nan nan nan nan nan nan nan nan nan nan nan nan 208 207 200 191 187 187 193 195 196 197 202 222 242 248 249 249 251 254 253 254 250 247 249 249 249 248 247 246 251 257 259 260
nan nan nan nan nan nan nan nan nan nan nan nan nan nan nan nan nan nan nan nan nan nan nan nan nan nan nan nan nan nan nan nan nan nan nan nan nan nan nan nan nan nan nan nan nan nan nan nan nan nan nan 206 208 207 207 205 202 191 186 188 190 193 195 197 203 222 240 248 253 254 253 252 253 254 252 250 246 247 247 247 244 242 244 250 255 259
nan nan nan nan nan nan nan nan nan nan nan nan nan nan nan nan nan nan nan nan nan nan nan nan nan nan nan nan nan nan nan nan nan nan nan nan nan nan nan nan nan nan nan nan nan nan nan nan nan nan nan nan 207 210 209 204 201 196 193 193 192 193 195 195 205 224 238 248 253 256 254 254 248 249 251 252 247 244 244 245 244 242 241 248 257 263
nan nan nan nan nan nan nan nan nan nan nan nan nan nan nan nan nan nan nan nan nan nan nan nan nan nan nan nan nan nan nan nan nan nan nan nan nan nan nan nan nan nan nan nan nan nan nan nan nan nan nan nan nan nan 210 207 203 198 195 197 200 202 198 200 215 229 239 250 254 255 256 254 259 257 249 251 251 248 247 249 252 251 250 258 267 267
nan nan nan nan nan nan nan nan nan nan nan nan nan nan nan nan nan nan nan nan nan nan nan nan nan nan nan nan nan nan nan nan nan nan nan nan nan nan nan nan nan nan nan nan nan nan nan nan 199 200 nan nan nan 210 209 208 204 200 199 203 207 206 203 207 222 232 239 246 251 254 255 253 251 250 249 250 252 251 251 254 253 253 248 251 255 257
nan nan nan nan nan nan nan nan nan nan nan nan nan nan nan nan nan nan nan nan nan nan nan nan nan nan nan nan nan nan nan nan nan nan nan nan nan nan nan nan nan nan nan nan nan nan nan 198 201 204 204 205 209 210 210 210 208 205 205 209 210 212 210 210 220 230 237 241 242 246 249 250 252 253 252 253 253 250 241 227 233 239 246 247 259 262
nan nan nan nan nan nan nan nan nan nan nan nan nan nan nan nan nan nan nan nan nan nan nan nan nan nan nan nan nan nan nan nan nan nan nan nan nan nan nan nan nan nan nan nan nan nan nan 202 204 209 212 210 209 209 209 208 206 204 207 212 214 214 215 218 221 230 238 240 241 245 248 250 254 254 250 245 243 243 245 240 235 233 230 219 222 253